FW3268 Weather Reports


Display with metric or nautical units.
time (UTC)temp
F
wind
direction
speed
MPH
gust
MPH
rain 1hr
in
rain 24hr
in
rain mn
in
humidity
%
barometer
mb
20260901211503 91 288 5.0 9.0 0.00 0.00 0.00 68 1015.7
20260901210006 91 237 4.0 8.0 0.00 0.00 0.00 69 1015.6
20260901204503 91 269 5.0 8.0 0.00 0.00 0.00 67 1015.8
20260901203003 91 233 5.0 10.0 0.00 0.00 0.00 68 1015.8
20260901201502 91 245 6.0 10.0 0.00 0.00 0.00 66 1015.8
20260901200005 91 295 6.0 11.0 0.00 0.00 0.00 67 1015.9
20260901193003 91 285 5.0 8.0 0.00 0.00 0.00 66 1015.9
20260901191502 91 285 5.0 8.0 0.00 0.00 0.00 66 1016.0
20260901190005 90 284 5.0 11.0 0.00 0.00 0.00 65 1016.1
20260901184502 90 247 6.0 11.0 0.00 0.00 0.00 67 1016.1
20260901183003 90 276 5.0 11.0 0.00 0.00 0.00 66 1016.2
20260901181502 90 266 6.0 12.0 0.00 0.00 0.00 68 1016.3
20260901180006 90 255 5.0 11.0 0.00 0.00 0.00 69 1016.3
20260901173002 89 258 5.0 10.0 0.00 0.00 0.00 68 1016.4
20260901171503 88 274 5.0 10.0 0.00 0.00 0.00 71 1016.5
20260901170007 87 238 4.0 9.0 0.00 0.00 0.00 71 1016.6
20260901164502 87 217 5.0 10.0 0.00 0.00 0.00 71 1016.7
20260901163002 87 249 5.0 11.0 0.00 0.00 0.00 71 1016.9
20260901161503 87 283 5.0 9.0 0.00 0.00 0.00 73 1016.9
20260901160004 86 245 5.0 8.0 0.00 0.00 0.00 72 1017.0
20260901154500 85 281 5.0 9.0 0.00 0.00 0.00 72 1017.0
20260901153001 85 231 4.0 7.0 0.00 0.00 0.00 73 1017.1
20260901151502 84 277 5.0 8.0 0.00 0.00 0.00 75 1017.1
20260901150004 83 281 5.0 8.0 0.00 0.00 0.00 74 1017.3
20260901144501 83 293 5.0 9.0 0.00 0.00 0.00 76 1017.1
20260901143002 82 271 4.0 8.0 0.00 0.00 0.00 79 1017.0
20260901141501 81 248 4.0 8.0 0.00 0.00 0.00 80 1017.1
20260901140004 80 236 5.0 11.0 0.00 0.00 0.00 81 1017.2
20260901134501 80 274 3.0 7.0 0.00 0.00 0.00 82 1017.4
20260901133002 79 282 4.0 8.0 0.00 0.00 0.00 84 1017.4
20260901131502 78 229 3.0 8.0 0.00 0.00 0.00 85 1017.4
20260901130004 76 250 3.0 7.0 0.00 0.00 0.00 86 1017.4
20260901124501 75 244 2.0 5.0 0.00 0.00 0.00 88 1017.4
20260901123001 74 235 1.0 3.0 0.00 0.00 0.00 90 1017.4
20260901121501 73 226 0.0 2.0 0.00 0.00 0.00 91 1017.1
20260901120004 72 240 0.0 1.0 0.00 0.00 0.00 92 1017.0
20260901114501 72 234 0.0 2.0 0.00 0.00 0.00 92 1016.9
20260901111501 72 238 0.0 2.0 0.00 0.00 0.00 91 1016.6
20260901110004 73 237 1.0 4.0 0.00 0.00 0.00 91 1016.4
20260901103001 72 240 0.0 0.0 0.00 0.00 0.00 92 1016.4
20260901101501 73 240 0.0 1.0 0.00 0.00 0.00 91 1016.3
20260901100004 74 231 2.0 5.0 0.00 0.00 0.00 89 1016.3
20260901094500 75 272 3.0 5.0 0.00 0.00 0.00 88 1016.2
20260901091501 74 264 2.0 5.0 0.00 0.00 0.00 90 1016.0
20260901090005 74 260 2.0 4.0 0.00 0.00 0.00 89 1016.0
20260901084502 75 250 3.0 6.0 0.00 0.00 0.00 88 1015.9
20260901083001 76 267 5.0 8.0 0.00 0.00 0.00 86 1015.9
20260901081500 76 269 5.0 10.0 0.00 0.00 0.00 87 1015.9
20260901080007 75 217 5.0 8.0 0.00 0.00 0.00 87 1015.8
20260901074501 75 273 4.0 8.0 0.00 0.00 0.00 88 1015.7
20260901073001 74 254 3.0 6.0 0.00 0.00 0.00 89 1015.7
20260901071500 74 242 2.0 5.0 0.00 0.00 0.00 90 1015.8
20260901064502 74 231 1.0 4.0 0.00 0.00 0.00 91 1016.0
20260901063001 74 234 1.0 4.0 0.00 0.00 0.00 91 1016.0
20260901061501 74 229 1.0 3.0 0.00 0.00 0.00 91 1016.0
20260901060005 74 227 1.0 2.0 0.00 0.00 0.00 91 1016.2
20260901054501 74 231 0.0 2.0 0.00 0.00 0.00 90 1016.2
20260901053001 75 231 1.0 3.0 0.00 0.00 0.00 89 1016.2
20260901051502 76 233 1.0 4.0 0.00 0.00 0.00 88 1016.1
20260901050005 76 238 2.0 4.0 0.00 0.00 0.00 87 1016.1
20260901044506 77 207 2.0 5.0 0.00 0.00 0.00 86 1016.0
20260901043002 77 216 2.0 6.0 0.00 0.00 0.00 86 1015.9
20260901041503 78 227 2.0 6.0 0.00 0.00 0.00 85 1015.9
20260901040007 78 193 3.0 8.0 0.00 0.00 0.00 84 1015.8
20260901034503 78 226 2.0 6.0 0.00 0.00 0.00 85 1015.8
20260901033003 77 165 2.0 6.0 0.00 0.00 0.00 87 1015.8
20260901030006 75 163 0.0 2.0 0.00 0.00 0.00 88 1016.2
20260901024502 75 148 0.0 0.0 0.00 0.00 0.00 87 1016.3
20260901023002 76 147 0.0 0.0 0.00 0.00 0.00 86 1016.6
20260901014503 78 147 0.0 0.0 0.00 0.00 0.00 84 1016.3
20260901013003 78 147 0.0 0.0 0.00 0.00 0.00 84 1016.3
20260901011505 79 148 0.0 1.0 0.00 0.00 0.00 83 1016.2
20260901010007 79 147 0.0 0.0 0.00 0.00 0.00 83 1016.0
20260901004504 79 147 1.0 2.0 0.00 0.00 0.00 82 1015.8
20260901001503 82 158 1.0 2.0 0.00 0.00 0.00 76 1015.8
20260901000006 85 220 1.0 3.0 0.00 0.00 0.00 72 1015.7
20260831233003 87 231 1.0 3.0 0.00 0.00 0.00 70 1015.7
20260831231504 87 250 1.0 4.0 0.00 0.00 0.00 70 1015.8
20260831230006 87 243 3.0 7.0 0.00 0.00 0.00 68 1015.7
20260831224502 88 258 4.0 7.0 0.00 0.00 0.00 67 1015.6
20260831221502 88 253 5.0 10.0 0.00 0.00 0.00 66 1015.8
20260831214502 88 190 6.0 13.0 0.00 0.00 0.00 66 1015.8
20260831213002 88 236 5.0 10.0 0.00 0.00 0.00 66 1015.9